Regional Weather Roundup
Issued by NWS

Home | Current Version | Previous Version | Text Only | Print | Product List | Glossary On
Versions: 1 2 3 4 5 6 7 8 9 10 11 12 13 14 15 16 17 18 19 20 21 22 23 24 25 26 27 28 29 30 31 32 33 34 35 36 37 38 39 40 41 42 43 44 45 46 47 48 49 50
000
ASUS45 KREV 031810
RWRNV
NEVADA REGIONAL WEATHER ROUNDUP
NATIONAL WEATHER SERVICE RENO NV
1100 AM PDT FRI JUL 03 2015

NOTE: "FAIR" INDICATES FEW OR NO CLOUDS BELOW 12,000 FEET WITH NO
SIGNIFICANT WEATHER AND/OR OBSTRUCTIONS TO VISIBILITY.

NVZ001-003-004-031900-
WESTERN NEVADA

CITY           SKY/WX    TMP DP  RH WIND       PRES   REMARKS
RENO           PTSUNNY   85  55  35 CALM      30.09F
6HR MIN TEMP:  69; 6HR MAX TEMP:  86;

CARSON CITY    FAIR      82  55  39 SW5       30.12S
MINDEN         FAIR      79  57  47 CALM      30.12F
SLIDE MTN        N/A     63  50  63 E5          N/A
PYRAMID LAKE     N/A     77 N/A N/A N8          N/A
FALLON         SUNNY     88  54  31 VRB7      30.04F
6HR MIN TEMP:  71; 6HR MAX TEMP:  88;

LOVELOCK       MOSUNNY   86  55  34 VRB3      30.04S
6HR MIN TEMP:  73; 6HR MAX TEMP:  87;

HAWTHORNE      SUNNY     82  57  42 CALM      30.08F
$$

NVZ002-CAZ072-073-031900-
NORTHERN AND CENTRAL SIERRA

CITY           SKY/WX    TMP DP  RH WIND       PRES   REMARKS
S. LAKE TAHOE  MOSUNNY   76  55  48 VRB5      30.23F
6HR MIN TEMP:  58; 6HR MAX TEMP:  76; 6HR PCP:  0.06;

TRUCKEE        MOSUNNY   75  57  53 CALM      30.21F
SQUAW VLY 8000 NOT AVBL
SUSANVILLE     SUNNY     86  50  28 W5        30.07F
BLUE CANYON    MOSUNNY   74  57  55 S10       30.20R
MAMMOTH LAKES  FAIR      75  50  41 E5        30.30S
BRIDGEPORT     FAIR      78  49  35 VRB3      30.23F
$$

NVZ030-031-036-031900-
NORTHERN NEVADA

CITY           SKY/WX    TMP DP  RH WIND       PRES   REMARKS
ELKO           PTSUNNY   80  52  37 VRB3      30.12F
6HR MIN TEMP:  62; 6HR MAX TEMP:  80;

WINNEMUCCA     PTSUNNY   88  51  28 VRB3      30.06
6HR MIN TEMP:  65; 6HR MAX TEMP:  88;

WENDOVER       SUNNY     91  46  21 SE6       30.03F
$$

NVZ035-037-031900-
CENTRAL NEVADA

CITY           SKY/WX    TMP DP  RH WIND       PRES   REMARKS
ELY            MOSUNNY   84  44  24 CALM      30.21F
6HR MIN TEMP:  62; 6HR MAX TEMP:  85;

EUREKA           N/A     85  47  26 E5        30.17F
6HR MIN TEMP:  61; 6HR MAX TEMP:  85;

$$

NVZ013-014-031900-
SOUTH CENTRAL NEVADA

CITY           SKY/WX    TMP DP  RH WIND       PRES   REMARKS
TONOPAH        SUNNY     86  49  27 SE5       30.16S
6HR MIN TEMP:  65; 6HR MAX TEMP:  86;

$$

NVZ017-020-022-031900-
SOUTHERN NEVADA

CITY           SKY/WX    TMP DP  RH WIND       PRES   REMARKS
LAS VEGAS      PTSUNNY  100  51  19 S9        29.86S
6HR MIN TEMP:  88; 6HR MAX TEMP: 100;

N. LAS VEGAS   MOSUNNY  100  54  21 S8        29.88S
6HR MIN TEMP:  86; 6HR MAX TEMP: 100;

NELLIS AFB     SUNNY    100  55  22 SE6       29.86S
6HR MIN TEMP:  88; 6HR MAX TEMP: 100;

HENDERSON      MOSUNNY  100  55  22 S8        29.94S
6HR MIN TEMP:  82; 6HR MAX TEMP: 100;

MERCURY        PTSUNNY   94  49  21 SW9       29.99F
6HR MIN TEMP:  78; 6HR MAX TEMP:  94;

$$



USA.gov is the U.S. government's official web portal to all federal, state and local government web resources and services.